Station Historical Data
Daily Summary for May 14, 2017 Units:  English    Metric   Both
« Previous Day
Next Day »
Daily Weekly Monthly Yearly Custom
  High: Low: Average:
Temperature: 60.4 °F 41.8 °F 50.3 °F
Dew Point: 40.6 °F 30.7 °F 34.4 °F
Humidity: 77 % 35 % 56 %
Wind Speed: 10.0 mph 0.0 mph 1.5 mph
Wind Gust: 15.0 mph - -
Wind:- - South
Pressure: 29.97 in 29.90 in -
Precipitation: 0.00 in    
Historical Graphs
 
 
Tabular Data for May 14, 2017
Time Temperature Dew Point Pressure Wind Wind Speed Wind Gust Humidity Rainfall Rate (Hourly) solar
00:04 44.6 °F 30.8 °F 29.97 in NE 1.0 mph 3.0 mph 58 % 0.00 in 0.00 W/m2
00:09 44.5 °F 31.1 °F 29.97 in NE 1.0 mph 4.0 mph 59 % 0.00 in 0.00 W/m2
00:10 44.5 °F 31.1 °F 29.97 in Calm   4.0 mph 59 % 0.00 in 0.00 W/m2
00:15 44.5 °F 31.5 °F 29.97 in ENE 3.0 mph 4.0 mph 60 % 0.00 in 0.00 W/m2
00:20 44.4 °F 31.4 °F 29.97 in Calm   4.0 mph 60 % 0.00 in 0.00 W/m2
00:25 44.3 °F 31.3 °F 29.97 in ENE 3.0 mph 4.0 mph 60 % 0.00 in 0.00 W/m2
00:30 44.3 °F 31.7 °F 29.97 in ENE 2.0 mph 5.0 mph 61 % 0.00 in 0.00 W/m2
00:35 44.2 °F 31.6 °F 29.96 in ENE 1.0 mph 4.0 mph 61 % 0.00 in 0.00 W/m2
00:40 44.2 °F 31.6 °F 29.97 in Calm   5.0 mph 61 % 0.00 in 0.00 W/m2
00:45 44.2 °F 31.6 °F 29.96 in Calm   4.0 mph 61 % 0.00 in 0.00 W/m2
00:50 44.1 °F 31.5 °F 29.96 in Calm   5.0 mph 61 % 0.00 in 0.00 W/m2
00:55 44.1 °F 31.5 °F 29.96 in East 3.0 mph 5.0 mph 61 % 0.00 in 0.00 W/m2
01:00 44.0 °F 31.8 °F 29.96 in Calm   4.0 mph 62 % 0.00 in 0.00 W/m2
01:05 43.9 °F 31.7 °F 29.95 in Calm     62 % 0.00 in 0.00 W/m2
01:10 43.8 °F 31.2 °F 29.95 in Calm     61 % 0.00 in 0.00 W/m2
01:15 43.7 °F 31.5 °F 29.95 in Calm     62 % 0.00 in 0.00 W/m2
01:20 43.7 °F 31.5 °F 29.95 in Calm     62 % 0.00 in 0.00 W/m2
01:25 43.6 °F 31.5 °F 29.95 in Calm   4.0 mph 62 % 0.00 in 0.00 W/m2
01:30 43.6 °F 31.5 °F 29.95 in Calm   3.0 mph 62 % 0.00 in 0.00 W/m2
01:35 43.5 °F 31.4 °F 29.95 in Calm     62 % 0.00 in 0.00 W/m2
01:40 43.5 °F 31.8 °F 29.95 in East 2.0 mph 6.0 mph 63 % 0.00 in 0.00 W/m2
01:45 43.4 °F 31.7 °F 29.94 in East 3.0 mph 5.0 mph 63 % 0.00 in 0.00 W/m2
01:50 43.4 °F 31.3 °F 29.94 in East 2.0 mph 7.0 mph 62 % 0.00 in 0.00 W/m2
01:55 43.4 °F 31.7 °F 29.94 in East 5.0 mph 8.0 mph 63 % 0.00 in 0.00 W/m2
02:00 43.3 °F 31.6 °F 29.94 in Calm   7.0 mph 63 % 0.00 in 0.00 W/m2
02:05 43.2 °F 31.5 °F 29.94 in Calm   7.0 mph 63 % 0.00 in 0.00 W/m2
02:10 43.2 °F 31.5 °F 29.94 in East 2.0 mph 8.0 mph 63 % 0.00 in 0.00 W/m2
02:15 43.2 °F 31.5 °F 29.94 in Calm   8.0 mph 63 % 0.00 in 0.00 W/m2
02:21 43.1 °F 31.4 °F 29.93 in ESE 4.0 mph 11.0 mph 63 % 0.00 in 0.00 W/m2
02:26 43.1 °F 31.4 °F 29.93 in Calm   7.0 mph 63 % 0.00 in 0.00 W/m2
02:31 43.0 °F 31.3 °F 29.93 in Calm   8.0 mph 63 % 0.00 in 0.00 W/m2
02:36 43.0 °F 31.7 °F 29.93 in Calm   5.0 mph 64 % 0.00 in 0.00 W/m2
02:41 43.0 °F 31.7 °F 29.93 in Calm   5.0 mph 64 % 0.00 in 0.00 W/m2
02:46 43.0 °F 31.7 °F 29.92 in Calm   6.0 mph 64 % 0.00 in 0.00 W/m2
02:51 42.9 °F 31.6 °F 29.93 in Calm   4.0 mph 64 % 0.00 in 0.00 W/m2
02:56 42.9 °F 31.6 °F 29.93 in Calm   1.0 mph 64 % 0.00 in 0.00 W/m2
03:01 42.9 °F 31.6 °F 29.92 in East 4.0 mph 6.0 mph 64 % 0.00 in 0.00 W/m2
03:06 42.8 °F 31.5 °F 29.92 in Calm   7.0 mph 64 % 0.00 in 0.00 W/m2
03:11 42.8 °F 31.5 °F 29.92 in East 4.0 mph 6.0 mph 64 % 0.00 in 0.00 W/m2
03:16 42.7 °F 31.4 °F 29.92 in Calm   4.0 mph 64 % 0.00 in 0.00 W/m2
03:21 42.7 °F 31.4 °F 29.92 in Calm   6.0 mph 64 % 0.00 in 0.00 W/m2
03:26 42.7 °F 31.4 °F 29.92 in Calm     64 % 0.00 in 0.00 W/m2
03:31 42.7 °F 31.4 °F 29.92 in Calm   4.0 mph 64 % 0.00 in 0.00 W/m2
03:36 42.6 °F 31.3 °F 29.92 in ESE 2.0 mph 5.0 mph 64 % 0.00 in 0.00 W/m2
03:41 42.5 °F 31.6 °F 29.92 in Calm   2.0 mph 65 % 0.00 in 0.00 W/m2
03:46 42.5 °F 31.6 °F 29.92 in Calm     65 % 0.00 in 0.00 W/m2
03:51 42.4 °F 31.5 °F 29.92 in Calm     65 % 0.00 in 0.00 W/m2
03:56 42.4 °F 31.5 °F 29.92 in Calm     65 % 0.00 in 0.00 W/m2
04:01 42.3 °F 31.4 °F 29.92 in Calm     65 % 0.00 in 0.00 W/m2
04:06 42.3 °F 31.4 °F 29.92 in Calm     65 % 0.00 in 0.00 W/m2
04:11 42.2 °F 31.3 °F 29.92 in Calm     65 % 0.00 in 0.00 W/m2
04:16 42.2 °F 31.7 °F 29.92 in Calm     66 % 0.00 in 0.00 W/m2
04:21 42.2 °F 31.7 °F 29.91 in Calm     66 % 0.00 in 0.00 W/m2
04:26 42.2 °F 31.7 °F 29.91 in Calm     66 % 0.00 in 0.00 W/m2
04:31 42.1 °F 31.2 °F 29.91 in Calm     65 % 0.00 in 0.00 W/m2
04:36 42.1 °F 31.6 °F 29.91 in Calm     66 % 0.00 in 0.00 W/m2
04:41 42.1 °F 31.2 °F 29.91 in Calm   5.0 mph 65 % 0.00 in 0.00 W/m2
04:46 42.0 °F 31.5 °F 29.91 in Calm     66 % 0.00 in 0.00 W/m2
04:51 42.0 °F 31.5 °F 29.91 in ESE 1.0 mph 1.0 mph 66 % 0.00 in 0.00 W/m2
04:56 42.0 °F 31.5 °F 29.91 in East 6.0 mph 6.0 mph 66 % 0.00 in 0.00 W/m2
05:01 41.9 °F 31.0 °F 29.91 in Calm     65 % 0.00 in 0.00 W/m2
05:06 41.9 °F 31.0 °F 29.90 in ESE 5.0 mph 6.0 mph 65 % 0.00 in 0.00 W/m2
05:11 41.9 °F 31.0 °F 29.91 in ESE 5.0 mph 5.0 mph 65 % 0.00 in 0.00 W/m2
05:16 41.9 °F 31.4 °F 29.91 in ESE 1.0 mph 2.0 mph 66 % 0.00 in 0.00 W/m2
05:21 41.9 °F 31.4 °F 29.91 in ESE 7.0 mph 7.0 mph 66 % 0.00 in 0.00 W/m2
05:26 41.9 °F 31.8 °F 29.91 in ESE 5.0 mph 7.0 mph 67 % 0.00 in 0.00 W/m2
05:31 41.9 °F 31.4 °F 29.90 in Calm   6.0 mph 66 % 0.00 in 0.00 W/m2
05:33 41.9 °F 31.4 °F 29.90 in Calm   6.0 mph 66 % 0.00 in 0.00 W/m2
05:38 41.9 °F 31.4 °F 29.91 in Calm   7.0 mph 66 % 0.00 in 0.00 W/m2
05:43 41.9 °F 31.4 °F 29.91 in Calm   1.0 mph 66 % 0.00 in 0.00 W/m2
05:48 41.9 °F 31.4 °F 29.91 in Calm   4.0 mph 66 % 0.00 in 0.00 W/m2
05:53 41.8 °F 31.3 °F 29.91 in Calm   6.0 mph 66 % 0.00 in 5.00 W/m2
05:58 41.8 °F 31.7 °F 29.91 in Calm   6.0 mph 67 % 0.00 in 9.00 W/m2
06:03 41.8 °F 31.7 °F 29.91 in Calm   5.0 mph 67 % 0.00 in 16.00 W/m2
06:08 41.8 °F 31.7 °F 29.91 in Calm   5.0 mph 67 % 0.00 in 23.00 W/m2
06:13 41.8 °F 31.7 °F 29.90 in Calm   6.0 mph 67 % 0.00 in 28.00 W/m2
06:18 41.8 °F 31.7 °F 29.90 in ESE 5.0 mph 6.0 mph 67 % 0.00 in 33.00 W/m2
06:23 41.8 °F 31.7 °F 29.91 in ESE 2.0 mph 7.0 mph 67 % 0.00 in 37.00 W/m2
06:28 41.8 °F 31.7 °F 29.91 in ESE 1.0 mph 6.0 mph 67 % 0.00 in 49.00 W/m2
06:33 41.9 °F 31.8 °F 29.91 in ESE 1.0 mph 5.0 mph 67 % 0.00 in 42.00 W/m2
06:38 41.9 °F 31.4 °F 29.91 in ESE 2.0 mph 6.0 mph 66 % 0.00 in 47.00 W/m2
06:43 41.9 °F 31.8 °F 29.91 in ESE 4.0 mph 5.0 mph 67 % 0.00 in 86.00 W/m2
06:48 42.0 °F 32.2 °F 29.91 in Calm   5.0 mph 68 % 0.00 in 107.00 W/m2
06:53 42.1 °F 32.3 °F 29.91 in Calm   7.0 mph 68 % 0.00 in 97.00 W/m2
06:58 42.2 °F 32.4 °F 29.91 in East 4.0 mph 7.0 mph 68 % 0.00 in 56.00 W/m2
07:03 42.2 °F 32.4 °F 29.91 in ESE 2.0 mph 6.0 mph 68 % 0.00 in 95.00 W/m2
07:08 42.3 °F 32.5 °F 29.91 in East 2.0 mph 6.0 mph 68 % 0.00 in 137.00 W/m2
07:13 42.4 °F 32.6 °F 29.91 in Calm   5.0 mph 68 % 0.00 in 200.00 W/m2
07:18 42.5 °F 32.7 °F 29.91 in Calm   5.0 mph 68 % 0.00 in 120.00 W/m2
07:23 42.5 °F 33.1 °F 29.91 in East 1.0 mph 7.0 mph 69 % 0.00 in 91.00 W/m2
07:25 42.6 °F 33.2 °F 29.91 in East 1.0 mph 7.0 mph 69 % 0.00 in 100.00 W/m2
07:30 42.7 °F 33.6 °F 29.91 in Calm   5.0 mph 70 % 0.00 in 183.00 W/m2
07:35 42.8 °F 34.1 °F 29.91 in Calm     71 % 0.00 in 193.00 W/m2
07:40 42.9 °F 33.8 °F 29.91 in East 1.0 mph 6.0 mph 70 % 0.00 in 355.00 W/m2
07:45 43.0 °F 34.2 °F 29.91 in ESE 5.0 mph 7.0 mph 71 % 0.00 in 271.00 W/m2
07:51 43.2 °F 34.5 °F 29.91 in ESE 2.0 mph 6.0 mph 71 % 0.00 in 195.00 W/m2
07:56 43.3 °F 34.2 °F 29.91 in ESE 2.0 mph 6.0 mph 70 % 0.00 in 229.00 W/m2
08:01 43.5 °F 34.4 °F 29.91 in Calm   6.0 mph 70 % 0.00 in 325.00 W/m2
08:06 43.7 °F 34.6 °F 29.91 in Calm   6.0 mph 70 % 0.00 in 376.00 W/m2
08:11 43.9 °F 35.1 °F 29.91 in ESE 2.0 mph 6.0 mph 71 % 0.00 in 232.00 W/m2
08:16 44.1 °F 35.3 °F 29.91 in ESE 2.0 mph 6.0 mph 71 % 0.00 in 411.00 W/m2
08:21 44.3 °F 34.4 °F 29.91 in ESE 5.0 mph 5.0 mph 68 % 0.00 in 448.00 W/m2
08:26 44.5 °F 33.5 °F 29.91 in ESE 4.0 mph 6.0 mph 65 % 0.00 in 478.00 W/m2
08:31 44.8 °F 33.0 °F 29.91 in Calm   6.0 mph 63 % 0.00 in 497.00 W/m2
08:36 45.0 °F 33.2 °F 29.91 in Calm   5.0 mph 63 % 0.00 in 490.00 W/m2
08:41 45.3 °F 33.1 °F 29.91 in Calm   5.0 mph 62 % 0.00 in 503.00 W/m2
08:46 45.6 °F 34.1 °F 29.91 in Calm   6.0 mph 64 % 0.00 in 515.00 W/m2
08:51 46.0 °F 34.5 °F 29.91 in Calm   2.0 mph 64 % 0.00 in 531.00 W/m2
08:56 46.3 °F 34.8 °F 29.92 in Calm     64 % 0.00 in 548.00 W/m2
09:01 46.7 °F 34.4 °F 29.92 in SE 2.0 mph 6.0 mph 62 % 0.00 in 563.00 W/m2
09:06 47.0 °F 35.1 °F 29.92 in SE 4.0 mph 4.0 mph 63 % 0.00 in 580.00 W/m2
09:11 47.3 °F 34.5 °F 29.92 in SE 1.0 mph 7.0 mph 61 % 0.00 in 596.00 W/m2
09:16 47.6 °F 34.4 °F 29.92 in Calm   5.0 mph 60 % 0.00 in 608.00 W/m2
09:21 47.9 °F 33.8 °F 29.92 in Calm   1.0 mph 58 % 0.00 in 622.00 W/m2
09:26 48.3 °F 35.5 °F 29.92 in Calm     61 % 0.00 in 638.00 W/m2
09:31 48.6 °F 35.4 °F 29.92 in Calm   6.0 mph 60 % 0.00 in 654.00 W/m2
09:36 49.0 °F 34.9 °F 29.92 in Calm   4.0 mph 58 % 0.00 in 668.00 W/m2
09:41 49.3 °F 35.2 °F 29.92 in Calm   5.0 mph 58 % 0.00 in 682.00 W/m2
09:46 49.5 °F 35.3 °F 29.92 in Calm   7.0 mph 58 % 0.00 in 694.00 W/m2
09:51 49.7 °F 34.7 °F 29.92 in Calm   6.0 mph 56 % 0.00 in 707.00 W/m2
09:56 49.9 °F 35.3 °F 29.92 in Calm   4.0 mph 57 % 0.00 in 717.00 W/m2
09:59 50.2 °F 36.0 °F 29.92 in South 4.0 mph 8.0 mph 58 % 0.00 in 728.00 W/m2
10:04 50.4 °F 36.6 °F 29.92 in SSW 2.0 mph 5.0 mph 59 % 0.00 in 738.00 W/m2
10:09 50.6 °F 36.4 °F 29.92 in Calm   4.0 mph 58 % 0.00 in 752.00 W/m2
10:14 51.0 °F 36.3 °F 29.92 in SW 1.0 mph 6.0 mph 57 % 0.00 in 766.00 W/m2
10:19 51.2 °F 36.5 °F 29.92 in Calm   8.0 mph 57 % 0.00 in 777.00 W/m2
10:24 51.4 °F 36.7 °F 29.92 in Calm   7.0 mph 57 % 0.00 in 788.00 W/m2
10:29 51.7 °F 36.5 °F 29.92 in Calm   4.0 mph 56 % 0.00 in 798.00 W/m2
10:34 52.1 °F 36.0 °F 29.92 in Calm   5.0 mph 54 % 0.00 in 807.00 W/m2
10:39 52.3 °F 35.2 °F 29.92 in SW 6.0 mph 6.0 mph 52 % 0.00 in 823.00 W/m2
10:44 52.6 °F 35.0 °F 29.92 in SW 5.0 mph 7.0 mph 51 % 0.00 in 833.00 W/m2
10:49 52.7 °F 35.6 °F 29.92 in SSW 4.0 mph 8.0 mph 52 % 0.00 in 840.00 W/m2
10:54 53.0 °F 36.3 °F 29.92 in SW 7.0 mph 11.0 mph 53 % 0.00 in 851.00 W/m2
10:59 53.2 °F 34.0 °F 29.92 in SW 5.0 mph 9.0 mph 48 % 0.00 in 863.00 W/m2
11:04 53.4 °F 35.2 °F 29.92 in SSW 6.0 mph 9.0 mph 50 % 0.00 in 872.00 W/m2
11:09 53.7 °F 35.5 °F 29.92 in WSW 6.0 mph 6.0 mph 50 % 0.00 in 875.00 W/m2
11:14 54.0 °F 35.3 °F 29.92 in Calm   6.0 mph 49 % 0.00 in 888.00 W/m2
11:19 54.2 °F 35.5 °F 29.92 in Calm   10.0 mph 49 % 0.00 in 895.00 W/m2
11:24 54.5 °F 35.2 °F 29.93 in Calm   7.0 mph 48 % 0.00 in 902.00 W/m2
11:29 54.7 °F 33.8 °F 29.92 in Calm   8.0 mph 45 % 0.00 in 911.00 W/m2
11:34 54.9 °F 33.4 °F 29.93 in SW 5.0 mph 8.0 mph 44 % 0.00 in 916.00 W/m2
11:39 55.0 °F 34.6 °F 29.93 in SW 4.0 mph 6.0 mph 46 % 0.00 in 923.00 W/m2
11:44 55.3 °F 34.3 °F 29.92 in Calm   8.0 mph 45 % 0.00 in 928.00 W/m2
11:49 55.7 °F 34.7 °F 29.93 in SW 2.0 mph 10.0 mph 45 % 0.00 in 937.00 W/m2
11:55 56.0 °F 35.5 °F 29.93 in WSW 8.0 mph 13.0 mph 46 % 0.00 in 942.00 W/m2
12:00 56.4 °F 35.3 °F 29.93 in West 3.0 mph 9.0 mph 45 % 0.00 in 947.00 W/m2
12:05 56.6 °F 34.4 °F 29.92 in South 9.0 mph 9.0 mph 43 % 0.00 in 953.00 W/m2
12:10 56.9 °F 37.4 °F 29.93 in Calm   9.0 mph 48 % 0.00 in 963.00 W/m2
12:15 57.3 °F 37.8 °F 29.92 in SSE 4.0 mph 7.0 mph 48 % 0.00 in 977.00 W/m2
12:20 57.9 °F 38.9 °F 29.92 in WSW 4.0 mph 14.0 mph 49 % 0.00 in 1005.00 W/m2
12:25 57.9 °F 38.3 °F 29.92 in SSW 5.0 mph 10.0 mph 48 % 0.00 in 1067.00 W/m2
12:30 58.1 °F 40.6 °F 29.92 in South 2.0 mph 11.0 mph 52 % 0.00 in 1034.00 W/m2
12:35 58.4 °F 39.3 °F 29.92 in WSW 5.0 mph 10.0 mph 49 % 0.00 in 246.00 W/m2
12:40 58.3 °F 39.2 °F 29.92 in Calm   7.0 mph 49 % 0.00 in 1035.00 W/m2
12:45 58.1 °F 39.6 °F 29.92 in Calm   12.0 mph 50 % 0.00 in 981.00 W/m2
12:50 58.2 °F 38.1 °F 29.92 in SW 10.0 mph 13.0 mph 47 % 0.00 in 998.00 W/m2
12:55 58.4 °F 38.3 °F 29.92 in Calm   14.0 mph 47 % 0.00 in 995.00 W/m2
13:00 58.4 °F 38.3 °F 29.92 in WSW 3.0 mph 12.0 mph 47 % 0.00 in 1000.00 W/m2
13:05 58.2 °F 38.1 °F 29.92 in Calm   7.0 mph 47 % 0.00 in 1009.00 W/m2
13:10 58.2 °F 38.1 °F 29.91 in SE 5.0 mph 15.0 mph 47 % 0.00 in 1048.00 W/m2
13:15 58.2 °F 38.1 °F 29.92 in SW 1.0 mph 14.0 mph 47 % 0.00 in 1028.00 W/m2
13:20 58.1 °F 38.0 °F 29.92 in West 6.0 mph 10.0 mph 47 % 0.00 in 1027.00 W/m2
13:25 58.2 °F 38.1 °F 29.91 in Calm   11.0 mph 47 % 0.00 in 1005.00 W/m2
13:30 58.4 °F 37.2 °F 29.91 in SW 3.0 mph 14.0 mph 45 % 0.00 in 986.00 W/m2
13:35 58.6 °F 38.5 °F 29.92 in West 10.0 mph 13.0 mph 47 % 0.00 in 976.00 W/m2
13:38 58.8 °F 36.4 °F 29.91 in Calm   10.0 mph 43 % 0.00 in 976.00 W/m2
13:43 58.6 °F 36.8 °F 29.91 in SW 7.0 mph 9.0 mph 44 % 0.00 in 969.00 W/m2
13:48 59.0 °F 37.7 °F 29.91 in Calm   8.0 mph 45 % 0.00 in 979.00 W/m2
13:53 59.4 °F 36.9 °F 29.92 in Calm   14.0 mph 43 % 0.00 in 970.00 W/m2
13:58 59.7 °F 37.2 °F 29.92 in SW 3.0 mph 11.0 mph 43 % 0.00 in 967.00 W/m2
14:03 59.9 °F 36.8 °F 29.91 in SW 7.0 mph 12.0 mph 42 % 0.00 in 1062.00 W/m2
14:04 60.0 °F 36.9 °F 29.91 in WSW 4.0 mph 12.0 mph 42 % 0.00 in 991.00 W/m2
14:09 60.0 °F 36.2 °F 29.91 in SSW 1.0 mph 10.0 mph 41 % 0.00 in 937.00 W/m2
14:14 60.0 °F 36.2 °F 29.91 in SW 10.0 mph 10.0 mph 41 % 0.00 in 933.00 W/m2
14:19 60.1 °F 36.3 °F 29.91 in SSE 5.0 mph 14.0 mph 41 % 0.00 in 932.00 W/m2
14:24 60.2 °F 36.4 °F 29.91 in WSW 3.0 mph 6.0 mph 41 % 0.00 in 923.00 W/m2
14:29 60.3 °F 36.5 °F 29.91 in SW 9.0 mph 9.0 mph 41 % 0.00 in 904.00 W/m2
14:34 60.3 °F 36.5 °F 29.91 in SSE 2.0 mph 13.0 mph 41 % 0.00 in 905.00 W/m2
14:39 60.4 °F 36.0 °F 29.91 in SW 3.0 mph 11.0 mph 40 % 0.00 in 114.00 W/m2
14:44 60.1 °F 35.1 °F 29.91 in Calm     39 % 0.00 in 940.00 W/m2
14:49 60.0 °F 35.0 °F 29.91 in WSW 3.0 mph 13.0 mph 39 % 0.00 in 881.00 W/m2
14:54 60.1 °F 35.1 °F 29.91 in Calm   13.0 mph 39 % 0.00 in 870.00 W/m2
14:59 60.2 °F 35.2 °F 29.91 in SSW 8.0 mph 12.0 mph 39 % 0.00 in 884.00 W/m2
15:04 60.2 °F 35.8 °F 29.91 in SSW 3.0 mph 10.0 mph 40 % 0.00 in 840.00 W/m2
15:09 60.2 °F 35.2 °F 29.91 in WSW 3.0 mph 11.0 mph 39 % 0.00 in 830.00 W/m2
15:14 59.9 °F 33.6 °F 29.90 in Calm   8.0 mph 37 % 0.00 in 821.00 W/m2
15:19 59.8 °F 34.2 °F 29.91 in South 2.0 mph 11.0 mph 38 % 0.00 in 809.00 W/m2
15:24 59.8 °F 34.8 °F 29.90 in SSW 2.0 mph 12.0 mph 39 % 0.00 in 796.00 W/m2
15:29 59.9 °F 34.9 °F 29.90 in SW 9.0 mph 10.0 mph 39 % 0.00 in 788.00 W/m2
15:34 59.8 °F 32.8 °F 29.90 in SW 4.0 mph 12.0 mph 36 % 0.00 in 775.00 W/m2
15:39 59.8 °F 34.2 °F 29.90 in Calm   13.0 mph 38 % 0.00 in 759.00 W/m2
15:44 59.7 °F 33.4 °F 29.90 in Calm   10.0 mph 37 % 0.00 in 752.00 W/m2
15:49 59.4 °F 33.1 °F 29.90 in WSW 4.0 mph 12.0 mph 37 % 0.00 in 738.00 W/m2
15:54 59.1 °F 32.2 °F 29.90 in SW 4.0 mph 10.0 mph 36 % 0.00 in 724.00 W/m2
15:59 58.7 °F 33.2 °F 29.90 in West 8.0 mph 13.0 mph 38 % 0.00 in 724.00 W/m2
16:04 58.8 °F 32.6 °F 29.90 in WSW 8.0 mph 11.0 mph 37 % 0.00 in 698.00 W/m2
16:09 58.8 °F 33.3 °F 29.90 in Calm   8.0 mph 38 % 0.00 in 686.00 W/m2
16:15 58.8 °F 33.3 °F 29.90 in SW 1.0 mph 13.0 mph 38 % 0.00 in 671.00 W/m2
16:20 58.8 °F 31.2 °F 29.90 in Calm   12.0 mph 35 % 0.00 in 656.00 W/m2
16:25 58.8 °F 31.9 °F 29.90 in Calm   12.0 mph 36 % 0.00 in 642.00 W/m2
16:30 58.9 °F 32.7 °F 29.90 in SSW 3.0 mph 9.0 mph 37 % 0.00 in 629.00 W/m2
16:35 58.9 °F 32.0 °F 29.90 in Calm   10.0 mph 36 % 0.00 in 613.00 W/m2
16:40 58.8 °F 32.6 °F 29.90 in Calm   5.0 mph 37 % 0.00 in 603.00 W/m2
16:45 58.7 °F 33.2 °F 29.90 in Calm   10.0 mph 38 % 0.00 in 589.00 W/m2
16:50 58.8 °F 33.3 °F 29.90 in WSW 7.0 mph 12.0 mph 38 % 0.00 in 570.00 W/m2
16:55 58.9 °F 32.7 °F 29.90 in SW 4.0 mph 12.0 mph 37 % 0.00 in 554.00 W/m2
17:00 58.9 °F 32.7 °F 29.90 in West 4.0 mph 9.0 mph 37 % 0.00 in 536.00 W/m2
17:05 58.9 °F 32.7 °F 29.90 in SW 5.0 mph 11.0 mph 37 % 0.00 in 520.00 W/m2
17:10 58.9 °F 32.7 °F 29.90 in Calm   11.0 mph 37 % 0.00 in 510.00 W/m2
17:15 58.8 °F 32.6 °F 29.90 in WSW 5.0 mph 9.0 mph 37 % 0.00 in 497.00 W/m2
17:20 58.9 °F 33.4 °F 29.90 in Calm   9.0 mph 38 % 0.00 in 476.00 W/m2
17:25 58.7 °F 32.5 °F 29.90 in Calm   8.0 mph 37 % 0.00 in 459.00 W/m2
17:30 58.6 °F 31.8 °F 29.90 in Calm   11.0 mph 36 % 0.00 in 438.00 W/m2
17:35 58.5 °F 33.0 °F 29.90 in Calm   9.0 mph 38 % 0.00 in 427.00 W/m2
17:40 58.5 °F 31.0 °F 29.90 in Calm     35 % 0.00 in 408.00 W/m2
17:45 58.4 °F 32.2 °F 29.90 in WSW 8.0 mph 8.0 mph 37 % 0.00 in 390.00 W/m2
17:50 58.3 °F 32.2 °F 29.90 in Calm   14.0 mph 37 % 0.00 in 373.00 W/m2
17:55 58.2 °F 33.4 °F 29.90 in Calm   7.0 mph 39 % 0.00 in 267.00 W/m2
18:00 58.0 °F 32.6 °F 29.90 in WSW 4.0 mph 5.0 mph 38 % 0.00 in 185.00 W/m2
18:05 57.8 °F 31.7 °F 29.90 in Calm   4.0 mph 37 % 0.00 in 322.00 W/m2
18:10 57.6 °F 30.9 °F 29.90 in Calm   6.0 mph 36 % 0.00 in 306.00 W/m2
18:15 57.5 °F 30.8 °F 29.90 in Calm   3.0 mph 36 % 0.00 in 288.00 W/m2
18:20 57.4 °F 30.7 °F 29.90 in Calm   9.0 mph 36 % 0.00 in 272.00 W/m2
18:25 57.3 °F 33.2 °F 29.90 in Calm     40 % 0.00 in 255.00 W/m2
18:30 57.3 °F 33.2 °F 29.90 in Calm   4.0 mph 40 % 0.00 in 239.00 W/m2
18:35 57.2 °F 33.1 °F 29.90 in Calm     40 % 0.00 in 221.00 W/m2
18:40 57.1 °F 33.0 °F 29.90 in Calm   5.0 mph 40 % 0.00 in 206.00 W/m2
18:45 57.1 °F 33.6 °F 29.90 in Calm   2.0 mph 41 % 0.00 in 190.00 W/m2
18:50 57.1 °F 35.4 °F 29.90 in Calm   5.0 mph 44 % 0.00 in 172.00 W/m2
18:55 56.9 °F 34.7 °F 29.90 in Calm   4.0 mph 43 % 0.00 in 151.00 W/m2
19:00 56.8 °F 33.4 °F 29.90 in West 3.0 mph 8.0 mph 41 % 0.00 in 132.00 W/m2
19:05 56.7 °F 33.3 °F 29.90 in Calm   7.0 mph 41 % 0.00 in 113.00 W/m2
19:10 56.6 °F 33.8 °F 29.90 in Calm     42 % 0.00 in 91.00 W/m2
19:15 56.6 °F 36.1 °F 29.90 in Calm     46 % 0.00 in 76.00 W/m2
19:21 56.4 °F 35.3 °F 29.90 in WSW 5.0 mph 5.0 mph 45 % 0.00 in 62.00 W/m2
19:26 56.4 °F 35.9 °F 29.90 in WSW 1.0 mph 5.0 mph 46 % 0.00 in 49.00 W/m2
19:31 56.2 °F 36.3 °F 29.90 in Calm   1.0 mph 47 % 0.00 in 40.00 W/m2
19:36 56.0 °F 36.1 °F 29.90 in Calm     47 % 0.00 in 32.00 W/m2
19:41 55.8 °F 35.9 °F 29.90 in Calm     47 % 0.00 in 25.00 W/m2
19:46 55.5 °F 35.6 °F 29.90 in Calm     47 % 0.00 in 19.00 W/m2
19:51 55.3 °F 36.5 °F 29.90 in Calm     49 % 0.00 in 16.00 W/m2
19:56 54.9 °F 36.1 °F 29.90 in Calm     49 % 0.00 in 12.00 W/m2
20:01 54.6 °F 36.3 °F 29.90 in Calm     50 % 0.00 in 11.00 W/m2
20:06 54.2 °F 36.0 °F 29.90 in Calm     50 % 0.00 in 7.00 W/m2
20:11 53.9 °F 35.7 °F 29.90 in Calm     50 % 0.00 in 5.00 W/m2
20:16 53.6 °F 34.9 °F 29.90 in WSW 2.0 mph 2.0 mph 49 % 0.00 in 0.00 W/m2
20:21 53.3 °F 35.7 °F 29.90 in Calm     51 % 0.00 in 0.00 W/m2
20:26 52.8 °F 35.2 °F 29.91 in Calm     51 % 0.00 in 0.00 W/m2
20:31 52.3 °F 35.2 °F 29.91 in West 3.0 mph 4.0 mph 52 % 0.00 in 0.00 W/m2
20:36 51.8 °F 35.7 °F 29.91 in Calm     54 % 0.00 in 0.00 W/m2
20:41 51.3 °F 35.7 °F 29.91 in Calm     55 % 0.00 in 0.00 W/m2
20:46 50.9 °F 36.7 °F 29.91 in Calm     58 % 0.00 in 0.00 W/m2
20:51 50.5 °F 37.2 °F 29.91 in Calm     60 % 0.00 in 0.00 W/m2
20:56 50.4 °F 37.5 °F 29.91 in Calm     61 % 0.00 in 0.00 W/m2
21:01 50.2 °F 38.1 °F 29.91 in Calm     63 % 0.00 in 0.00 W/m2
21:06 50.0 °F 37.9 °F 29.91 in Calm     63 % 0.00 in 0.00 W/m2
21:11 49.9 °F 38.2 °F 29.91 in Calm     64 % 0.00 in 0.00 W/m2
21:13 49.8 °F 38.1 °F 29.92 in Calm     64 % 0.00 in 0.00 W/m2
21:18 49.7 °F 38.4 °F 29.92 in Calm   5.0 mph 65 % 0.00 in 0.00 W/m2
21:23 49.6 °F 38.7 °F 29.92 in Calm   3.0 mph 66 % 0.00 in 0.00 W/m2
21:28 49.4 °F 38.5 °F 29.92 in Calm     66 % 0.00 in 0.00 W/m2
21:33 49.3 °F 38.4 °F 29.92 in Calm     66 % 0.00 in 0.00 W/m2
21:38 49.2 °F 38.3 °F 29.92 in Calm     66 % 0.00 in 0.00 W/m2
21:43 49.2 °F 38.3 °F 29.92 in Calm     66 % 0.00 in 0.00 W/m2
21:48 49.2 °F 38.7 °F 29.92 in Calm     67 % 0.00 in 0.00 W/m2
21:53 49.1 °F 38.6 °F 29.92 in Calm     67 % 0.00 in 0.00 W/m2
21:58 49.1 °F 39.0 °F 29.92 in Calm     68 % 0.00 in 0.00 W/m2
22:03 49.0 °F 38.9 °F 29.92 in Calm     68 % 0.00 in 0.00 W/m2
22:08 49.0 °F 38.9 °F 29.92 in Calm     68 % 0.00 in 0.00 W/m2
22:13 48.9 °F 39.2 °F 29.92 in Calm     69 % 0.00 in 0.00 W/m2
22:18 48.8 °F 39.1 °F 29.92 in Calm   4.0 mph 69 % 0.00 in 0.00 W/m2
22:23 48.7 °F 39.4 °F 29.92 in Calm     70 % 0.00 in 0.00 W/m2
22:28 48.5 °F 39.2 °F 29.92 in Calm     70 % 0.00 in 0.00 W/m2
22:33 48.4 °F 39.4 °F 29.92 in Calm     71 % 0.00 in 0.00 W/m2
22:38 48.3 °F 39.3 °F 29.92 in Calm     71 % 0.00 in 0.00 W/m2
22:43 48.2 °F 39.2 °F 29.92 in Calm     71 % 0.00 in 0.00 W/m2
22:48 48.1 °F 39.2 °F 29.92 in Calm     71 % 0.00 in 0.00 W/m2
22:53 47.9 °F 39.0 °F 29.92 in Calm     71 % 0.00 in 0.00 W/m2
22:58 47.8 °F 39.2 °F 29.91 in Calm     72 % 0.00 in 0.00 W/m2
23:03 47.6 °F 39.0 °F 29.91 in Calm     72 % 0.00 in 0.00 W/m2
23:09 47.5 °F 38.9 °F 29.91 in Calm     72 % 0.00 in 0.00 W/m2
23:14 47.4 °F 39.2 °F 29.91 in Calm     73 % 0.00 in 0.00 W/m2
23:19 47.3 °F 40.5 °F 29.91 in Calm     77 % 0.00 in 0.00 W/m2
23:24 47.2 °F 39.0 °F 29.91 in Calm     73 % 0.00 in 0.00 W/m2
23:29 47.1 °F 39.2 °F 29.91 in Calm     74 % 0.00 in 0.00 W/m2
23:34 47.0 °F 39.2 °F 29.91 in Calm     74 % 0.00 in 0.00 W/m2
23:39 47.0 °F 39.2 °F 29.91 in Calm     74 % 0.00 in 0.00 W/m2
23:44 46.9 °F 39.1 °F 29.90 in Calm     74 % 0.00 in 0.00 W/m2
23:49 46.9 °F 39.4 °F 29.90 in Calm   2.0 mph 75 % 0.00 in 0.00 W/m2
23:54 46.9 °F 39.1 °F 29.90 in Calm     74 % 0.00 in 0.00 W/m2
23:59 46.8 °F 39.0 °F 29.91 in WNW 1.0 mph 5.0 mph 74 % 0.00 in 0.00 W/m2
Juneau County Weather
Compliments of Weather Underground - 4.5 mb
 WU-history PHP script courtesy of   Juneau County Weather.
powered by Cumulus v1.9.3 (1059)
Ambient Weather VWS v14.00
Top Contact Website Map Copyright © 2007 - 2018 Foresthillweather.com Never base important decisions on this or any weather information obtained from the Internet